Data for 09/07/2017

Time Sea-Level Adjusted Pressure Absolute Pressure Temperature Relative Humidity Dew Point   
(mb) (inHg) (mb) (inHg) (C) (F) (%) (C) (F)
00:05 1022 30.18 851 25.13 16.8 62.2 23 -4.2 24.5
00:10 1022 30.18 851 25.13 16.9 62.4 23 -4.1 24.6
00:15 1022 30.18 851 25.13 16.9 62.4 23 -4.3 24.3
00:20 1022 30.18 851 25.13 17 62.6 23 -4 24.8
00:25 1022 30.18 851 25.13 17 62.6 23 -4 24.8
00:30 1022 30.18 851 25.13 17 62.6 23 -3.9 24.9
00:35 1022 30.18 851 25.13 16.9 62.4 23 -4.1 24.7
00:40 1022 30.18 851 25.13 16.9 62.5 24 -3.8 25.1
00:45 1022 30.18 851 25.13 16.7 62.1 24 -4 24.8
00:50 1022 30.18 851 25.13 16.7 62.1 24 -4.1 24.7
00:55 1022 30.18 851 25.13 16.9 62.3 22 -4.8 23.4
01:00 1022 30.18 851 25.13 16.8 62.2 23 -4.1 24.7
01:05 1022 30.18 851 25.13 16.8 62.2 23 -4.3 24.3
01:10 1022 30.18 851 25.13 16.7 62.1 23 -4.6 23.7
01:15 1022 30.18 851 25.13 16.8 62.2 23 -4.5 24
01:20 1022 30.18 851 25.13 16.8 62.3 24 -4 24.8
01:25 1022 30.18 851 25.13 16 60.7 24 -4.5 23.9
01:30 1022 30.18 851 25.13 15.9 60.7 25 -4.1 24.5
01:35 1022 30.18 851 25.13 16.5 61.8 24 -4.2 24.4
01:40 1022 30.18 851 25.13 16.6 61.9 25 -3.6 25.6
01:45 1022 30.18 851 25.13 16.4 61.5 24 -4 24.9
01:50 1022 30.18 851 25.13 16.2 61.1 24 -4 24.7
01:55 1022 30.18 851 25.13 16.2 61.1 24 -4.6 23.8
02:00 1022 30.18 851 25.13 16.2 61.1 24 -4.3 24.2
02:05 1022 30.18 851 25.13 16.3 61.3 24 -4.1 24.6
02:10 1022 30.18 851 25.13 15.8 60.5 24 -4.5 23.8
02:15 1022 30.18 851 25.13 15.4 59.7 26 -4 24.8
02:20 1022 30.18 851 25.13 15.2 59.3 26 -4 24.8
02:25 1022 30.18 851 25.13 15.1 59.2 27 -3.6 25.4
02:30 1022 30.18 851 25.13 14.8 58.7 27 -3.8 25.1
02:35 1022 30.18 851 25.13 14.9 58.7 27 -3.7 25.3
02:40 1022 30.18 851 25.13 15.2 59.4 26 -3.9 25
02:45 1022 30.18 851 25.13 15.6 60.1 26 -3.7 25.3
02:50 1022 30.18 851 25.13 15.7 60.2 26 -3.9 25.1
02:55 1022 30.18 851 25.13 15.8 60.4 25 -4.2 24.4
03:00 1022 30.18 851 25.13 16 60.8 25 -4.1 24.6
03:05 1022 30.18 851 25.13 16 60.7 25 -3.9 25
03:10 1022 30.18 851 25.13 15.7 60.2 25 -4 24.7
03:15 1022 30.18 851 25.13 15.6 60.1 25 -4.1 24.7
03:20 1022 30.18 851 25.13 15.4 59.6 26 -3.8 25.2
03:25 1022 30.18 851 25.13 15 59.1 27 -3.9 25.1
03:30 1022 30.18 851 25.13 14.9 58.8 27 -4 24.7
03:35 1022 30.18 851 25.13 14.8 58.7 26 -4.3 24.2
03:40 1022 30.18 851 25.13 15.3 59.5 26 -4.1 24.6
03:45 1022 30.18 851 25.13 15.3 59.5 26 -4 24.8
03:50 1022 30.18 851 25.13 15 59 28 -3.4 25.9
03:55 1022 30.18 851 25.13 14.3 57.8 29 -3.3 26.1
04:00 1022 30.18 851 25.13 14.2 57.6 29 -3.7 25.4
04:05 1022 30.18 851 25.13 14.2 57.5 29 -3.4 25.9
04:10 1022 30.18 851 25.13 14 57.3 29 -3.5 25.7
04:15 1022 30.18 851 25.13 14 57.2 29 -3.8 25.1
04:20 1022 30.18 851 25.13 14.4 57.8 28 -3.8 25.2
04:25 1022 30.18 851 25.13 14.4 58 28 -3.8 25.1
04:30 1022 30.18 851 25.13 14.4 58 28 -3.6 25.5
04:35 1022 30.18 851 25.13 14.3 57.7 28 -3.8 25.1
04:40 1022 30.18 851 25.13 14.2 57.6 28 -3.8 25.2
04:45 1022 30.18 851 25.13 14.1 57.3 29 -3.8 25.2
04:50 1022 30.18 851 25.13 13.9 56.9 29 -3.7 25.3
04:55 1022 30.18 851 25.13 13.7 56.7 30 -3.6 25.5
05:00 1022 30.18 851 25.13 13.5 56.3 31 -3.5 25.8
05:05 1022 30.18 851 25.13 13.3 56 30 -4 24.8
05:10 1022 30.18 851 25.13 13.6 56.4 28 -4.4 24.1
05:15 1022 30.18 851 25.13 13.9 57 28 -4.2 24.5
05:20 1022 30.18 851 25.13 13.7 56.7 29 -3.9 24.9
05:25 1022 30.18 851 25.13 13.5 56.3 29 -3.9 25
05:30 1022 30.18 851 25.13 13.6 56.4 29 -4.3 24.3
05:35 1022 30.18 851 25.13 13.9 56.9 28 -4.1 24.5
05:40 1022 30.18 851 25.13 13.7 56.6 29 -3.9 24.9
05:45 1022 30.18 851 25.13 13.3 56 30 -3.7 25.4
05:50 1022 30.18 851 25.13 12.9 55.1 32 -3.4 25.8
05:55 1022 30.18 851 25.13 12.5 54.5 33 -3.5 25.8
06:00 1022 30.18 851 25.13 12.2 54 32 -4 24.8
06:05 1022 30.18 851 25.13 12.6 54.6 31 -4.1 24.7
06:10 1022 30.18 851 25.13 12.3 54.2 36 -2.1 28.2
06:15 1022 30.18 851 25.13 11.8 53.2 34 -3.7 25.3
06:20 1022 30.18 851 25.13 12.4 54.4 31 -4.4 24.1
06:25 1022 30.18 851 25.13 13 55.4 29 -4.6 23.7
06:30 1022 30.18 851 25.13 13.5 56.4 29 -4.3 24.2
06:35 1022 30.18 851 25.13 13.3 55.9 31 -3.6 25.4
06:40 1022 30.18 851 25.13 12.6 54.6 32 -3.7 25.4
06:45 1022 30.18 851 25.13 12.3 54.1 32 -3.7 25.3
06:50 1022 30.18 851 25.13 12.5 54.5 29 -5.1 22.9
06:55 1022 30.18 851 25.13 13.3 55.9 28 -4.6 23.7
07:00 1022 30.18 851 25.13 13.5 56.3 28 -4.4 24.1
07:05 1022 30.18 851 25.13 13.4 56 29 -4.2 24.5
07:10 1022 30.18 851 25.13 13.1 55.6 30 -4.2 24.5
07:15 1022 30.18 851 25.13 12.9 55.2 30 -4.2 24.4
07:20 1022 30.18 851 25.13 12.9 55.1 29 -4.5 23.9
07:25 1022 30.18 851 25.13 13 55.4 30 -4.3 24.3
07:30 1022 30.18 851 25.13 12.9 55.3 30 -4.1 24.6
07:35 1022 30.18 851 25.13 12.7 54.8 33 -3.2 26.3
07:40 1022 30.18 851 25.13 12.4 54.2 32 -3.9 24.9
07:45 1022 30.18 851 25.13 12.6 54.7 31 -4.2 24.5
07:50 1022 30.18 851 25.13 12.9 55.1 32 -3.5 25.8
07:55 1022 30.18 851 25.13 12.8 55 32 -3.3 26
08:00 1022 30.18 851 25.13 12.9 55.2 31 -3.8 25.1
08:05 1022 30.18 851 25.13 12.9 55.2 30 -4.2 24.5
08:10 1022 30.18 851 25.13 13.5 56.2 29 -4.3 24.2
08:15 1022 30.18 851 25.13 13.6 56.5 29 -3.8 25.1
08:20 1022 30.18 851 25.13 13.6 56.5 31 -3.3 26.1
08:25 1022 30.18 851 25.13 13.4 56.1 33 -2.6 27.3
08:30 1022 30.18 851 25.13 13.2 55.8 34 -2.4 27.7
08:35 1022 30.18 851 25.13 13.3 55.9 33 -2.7 27.2
08:40 1022 30.18 851 25.13 13.4 56.1 31 -3.1 26.3
08:45 1022 30.18 851 25.13 13.9 57 30 -3.1 26.4
08:50 1022 30.18 851 25.13 14.4 58 30 -2.6 27.2
08:55 1022 30.18 851 25.13 14.8 58.6 31 -2.1 28.3
09:00 1022 30.18 852 25.16 15.1 59.1 32 -1.5 29.3
09:05 1022 30.18 852 25.16 15.6 60 30 -2 28.4
09:10 1022 30.18 852 25.16 16 60.7 29 -2 28.3
09:15 1022 30.18 852 25.16 16.1 60.9 29 -1.8 28.8
09:20 1022 30.18 852 25.16 16.1 60.9 30 -1.6 29.2
09:25 1022 30.18 852 25.16 16.3 61.3 29 -1.8 28.7
09:30 1022 30.18 852 25.16 16.5 61.8 30 -0.8 30.5
09:35 1022 30.18 852 25.16 16.6 61.9 32 0.1 32.1
09:40 1022 30.18 852 25.16 17.1 62.8 28 -1.3 29.7
09:45 1022 30.18 852 25.16 17.7 63.8 27 -1.2 29.8
09:50 1022 30.18 852 25.16 18.3 64.9 27 -0.8 30.5
09:55 1022 30.18 852 25.16 18.3 65 26 -1.2 29.9
10:00 1022 30.18 852 25.16 18.6 65.4 27 -0.9 30.5
10:05 1022 30.18 852 25.16 19.1 66.4 26 -0.9 30.4
10:10 1022 30.18 852 25.16 19.6 67.2 25 -0.6 30.8
10:15 1022 30.18 852 25.16 20 68 25 -0.5 31.1
10:20 1022 30.18 852 25.16 20.4 68.7 25 -0.1 31.8
10:25 1022 30.18 852 25.16 20.6 69.1 23 -1 30.2
10:30 1022 30.18 852 25.16 20.4 68.8 23 -1.2 29.8
10:35 1022 30.18 852 25.16 20.2 68.3 22 -2.4 27.7
10:40 1022 30.18 852 25.16 20.7 69.2 22 -1.7 29
10:45 1022 30.18 851 25.13 21.1 70.1 22 -1.4 29.5
10:50 1022 30.18 851 25.13 21.4 70.5 20 -2.1 28.2
10:55 1022 30.18 851 25.13 21.7 71 20 -2 28.4
11:00 1022 30.18 851 25.13 21.7 71.1 20 -1.8 28.7
11:05 1022 30.18 851 25.13 21.6 70.8 21 -1.6 29
11:10 1022 30.18 851 25.13 21.8 71.2 20 -2.3 27.9
11:15 1022 30.18 851 25.13 22.3 72.1 20 -1.7 28.9
11:20 1022 30.18 851 25.13 22.7 72.9 18 -2.8 27
11:25 1022 30.18 851 25.13 22.9 73.2 19 -1.9 28.6
11:30 1022 30.18 851 25.13 23.1 73.6 18 -2.1 28.2
11:35 1022 30.18 851 25.13 22.8 73 19 -1.9 28.6
11:40 1022 30.18 851 25.13 22.8 73.1 19 -1.6 29.2
11:45 1022 30.18 851 25.13 23.2 73.8 18 -2.4 27.7
11:50 1022 30.18 851 25.13 23.9 75 18 -1.5 29.3
11:55 1022 30.18 851 25.13 23.4 74 19 -1.2 29.8
12:00 1022 30.18 851 25.13 23.4 74.2 19 -1.3 29.6
12:05 1022 30.18 851 25.13 23.6 74.5 19 -1.1 30
12:10 1022 30.18 851 25.13 24 75.1 20 -0.3 31.5
12:15 1022 30.18 851 25.13 24.1 75.3 19 -0.9 30.3
12:20 1022 30.18 851 25.13 24 75.2 19 -0.6 31
12:25 1021 30.15 851 25.13 24.4 75.9 19 -0.5 31.1
12:30 1021 30.15 851 25.13 25.1 77.1 17 -1.4 29.5
12:35 1021 30.15 851 25.13 25 76.9 17 -1.3 29.6
12:40 1021 30.15 851 25.13 24.7 76.5 17 -1.5 29.3
12:45 1021 30.15 850 25.1 24.9 76.9 17 -1.2 29.8
12:50 1021 30.15 850 25.1 25 77 19 -0.3 31.5
12:55 1021 30.15 850 25.1 25.2 77.3 17 -1.2 29.8
13:00 1021 30.15 850 25.1 25.1 77.2 17 -1 30.2
13:05 1021 30.15 850 25.1 25.2 77.3 18 -0.6 30.9
13:10 1021 30.15 850 25.1 25.6 78 17 -1.1 29.9
13:15 1021 30.15 850 25.1 26.1 78.9 17 -0.7 30.7
13:20 1021 30.15 850 25.1 26.3 79.4 16 -1 30.2
13:25 1021 30.15 850 25.1 25.8 78.5 16 -1.2 29.8
13:30 1021 30.15 850 25.1 26 78.8 17 -0.6 30.8
13:35 1021 30.15 850 25.1 26.3 79.4 15 -2.2 28
13:40 1021 30.15 850 25.1 26.5 79.8 15 -1.7 28.9
13:45 1021 30.15 850 25.1 26 78.8 15 -2.5 27.4
13:50 1021 30.15 850 25.1 25.8 78.4 15 -2.4 27.6
13:55 1021 30.15 850 25.1 26 78.8 15 -2.2 28
14:00 1021 30.15 850 25.1 25.6 78.1 15 -2.3 27.8
14:05 1021 30.15 850 25.1 26.2 79.2 17 -0.8 30.5
14:10 1020 30.12 850 25.1 26.7 80.1 15 -1.5 29.3
14:15 1020 30.12 850 25.1 27 80.7 15 -1.8 28.7
14:20 1020 30.12 850 25.1 26.6 79.8 15 -2 28.4
14:25 1020 30.12 850 25.1 27 80.7 14 -2.1 28.3
14:30 1020 30.12 849 25.07 27.3 81.2 14 -2.7 27.2
14:35 1020 30.12 849 25.07 27.5 81.4 14 -2.3 27.8
14:40 1020 30.12 849 25.07 28.1 82.6 14 -1.5 29.3
14:45 1020 30.12 849 25.07 28 82.4 13 -2.4 27.7
14:50 1020 30.12 849 25.07 26.9 80.4 14 -2.3 27.9
14:55 1020 30.12 849 25.07 26.8 80.2 14 -2.3 27.8
15:00 1020 30.12 849 25.07 27.1 80.8 15 -1.1 30
15:05 1020 30.12 849 25.07 27.1 80.8 15 -1.2 29.9
15:10 1020 30.12 849 25.07 27.5 81.5 16 0.1 32.2
15:15 1020 30.12 849 25.07 27.7 81.8 15 -1.3 29.7
15:20 1020 30.12 849 25.07 27.8 82.1 15 -1 30.2
15:25 1020 30.12 849 25.07 28.3 82.9 14 -1.3 29.6
15:30 1020 30.12 849 25.07 28.5 83.3 15 -0.6 31
15:35 1020 30.12 849 25.07 28.6 83.4 14 -0.9 30.5
15:40 1020 30.12 849 25.07 28.6 83.6 13 -1.8 28.8
15:45 1020 30.12 849 25.07 28.7 83.7 13 -2 28.3
15:50 1020 30.12 849 25.07 28.7 83.7 13 -2.2 28.1
15:55 1020 30.12 849 25.07 28.5 83.3 13 -2.8 27
16:00 1019 30.09 849 25.07 28 82.4 13 -2.7 27.2
16:05 1019 30.09 849 25.07 28.4 83.2 12 -3.2 26.3
16:10 1019 30.09 849 25.07 27.9 82.2 12 -3.4 25.9
16:15 1019 30.09 849 25.07 28.5 83.2 12 -3.2 26.3
16:20 1019 30.09 848 25.04 28.6 83.5 12 -2.8 26.9
16:25 1019 30.09 848 25.04 28.3 82.9 12 -3.6 25.4
16:30 1019 30.09 848 25.04 28.5 83.3 12 -3.5 25.7
16:35 1019 30.09 848 25.04 28.7 83.6 13 -2.2 28
16:40 1019 30.09 848 25.04 28.8 83.8 12 -3.5 25.7
16:45 1019 30.09 848 25.04 28.6 83.5 13 -2.5 27.6
16:50 1019 30.09 848 25.04 28.7 83.7 12 -3.6 25.5
16:55 1019 30.09 848 25.04 28.4 83.2 11 -4.9 23.2
17:00 1019 30.09 848 25.04 28.7 83.6 11 -4 24.7
17:05 1019 30.09 848 25.04 28.8 83.8 11 -4 24.8
17:10 1019 30.09 848 25.04 28.8 83.8 11 -4.1 24.7
17:15 1019 30.09 848 25.04 28.8 83.9 12 -3.3 26
17:20 1019 30.09 848 25.04 28.5 83.3 12 -3.4 25.8
17:25 1019 30.09 848 25.04 28.5 83.4 12 -3.6 25.5
17:30 1019 30.09 848 25.04 28.8 83.8 12 -3.2 26.3
17:35 1019 30.09 848 25.04 28.7 83.7 12 -2.8 27
17:40 1019 30.09 848 25.04 28.6 83.5 12 -3.7 25.3
17:45 1019 30.09 848 25.04 28.5 83.4 11 -4 24.9
17:50 1019 30.09 848 25.04 27.8 82 12 -3.8 25.1
17:55 1019 30.09 848 25.04 27.4 81.3 13 -3.5 25.8
18:00 1019 30.09 848 25.04 27.2 81 13 -3.5 25.8
18:05 1019 30.09 848 25.04 27.2 80.9 13 -3.3 26.1
18:10 1018 30.06 848 25.04 26.9 80.4 13 -4.1 24.7
18:15 1018 30.06 848 25.04 26.7 80.1 13 -3.5 25.6
18:20 1018 30.06 848 25.04 26.7 80.1 12 -4.3 24.3
18:25 1018 30.06 848 25.04 26.7 80.1 13 -3.8 25.1
18:30 1018 30.06 848 25.04 26.7 80 13 -3.8 25.2
18:35 1018 30.06 848 25.04 26.6 79.8 13 -4.2 24.5
18:40 1018 30.06 848 25.04 26.5 79.7 12 -4.5 23.9
18:45 1018 30.06 848 25.04 26.5 79.6 12 -4.5 24
18:50 1018 30.06 848 25.04 26.4 79.5 12 -4.5 23.9
18:55 1018 30.06 848 25.04 26.4 79.5 13 -4.2 24.5
19:00 1019 30.09 848 25.04 26.2 79.2 15 -2.5 27.4
19:05 1019 30.09 848 25.04 26 78.7 18 0.1 32.2
19:10 1018 30.06 848 25.04 25.5 77.8 21 2.1 35.7
19:15 1018 30.06 848 25.04 25.1 77.2 19 0.2 32.3
19:20 1018 30.06 848 25.04 24.7 76.5 18 -0.8 30.5
19:25 1018 30.06 848 25.04 24.3 75.7 19 -0.4 31.2
19:30 1018 30.06 847 25.01 24.1 75.3 19 -0.7 30.7
19:35 1018 30.06 847 25.01 24.1 75.3 16 -3.5 25.7
19:40 1018 30.06 848 25.04 24 75.2 15 -3.8 25.2
19:45 1018 30.06 848 25.04 23.7 74.7 15 -4.6 23.8
19:50 1018 30.06 847 25.01 23.6 74.5 14 -5.4 22.3
19:55 1018 30.06 847 25.01 23.6 74.5 14 -5.4 22.3
20:00 1018 30.06 848 25.04 23.5 74.3 14 -5.5 22
20:05 1018 30.06 848 25.04 23.5 74.2 14 -5.8 21.5
20:10 1018 30.06 848 25.04 23.5 74.3 14 -5.7 21.7
20:15 1018 30.06 848 25.04 23.4 74.1 14 -5.7 21.8
20:20 1018 30.06 847 25.01 23.3 73.9 14 -5.9 21.4
20:25 1018 30.06 848 25.04 23.2 73.7 14 -5.6 21.9
20:30 1018 30.06 848 25.04 22.8 73.1 14 -5.5 22
20:35 1018 30.06 848 25.04 22.4 72.4 15 -5.7 21.8
20:40 1018 30.06 848 25.04 22.3 72.1 14 -6 21.2
20:45 1018 30.06 848 25.04 22.3 72.1 15 -5.8 21.5
20:50 1018 30.06 848 25.04 22.3 72.1 14 -6 21.2
20:55 1018 30.06 848 25.04 22.4 72.4 14 -5.8 21.5
21:00 1018 30.06 848 25.04 22.6 72.8 14 -5.8 21.5
21:05 1019 30.09 848 25.04 22.6 72.8 14 -5.9 21.4
21:10 1019 30.09 848 25.04 22.7 72.8 14 -5.9 21.3
21:15 1019 30.09 848 25.04 22.7 72.9 14 -5.8 21.5
21:20 1019 30.09 848 25.04 22.8 73 14 -5.8 21.5
21:25 1019 30.09 848 25.04 22.8 73 14 -5.9 21.4
21:30 1019 30.09 848 25.04 22.7 72.9 14 -5.8 21.5
21:35 1019 30.09 848 25.04 22.7 72.8 14 -6 21.2
21:40 1019 30.09 848 25.04 22.7 72.9 14 -6.1 21
21:45 1019 30.09 848 25.04 22.8 73 14 -6.1 21.1
21:50 1019 30.09 848 25.04 22.5 72.5 14 -6 21.1
21:55 1019 30.09 848 25.04 22.4 72.4 14 -6.3 20.6
22:00 1019 30.09 848 25.04 22.5 72.4 14 -6.3 20.6
22:05 1019 30.09 848 25.04 22.4 72.4 14 -6.2 20.9
22:10 1019 30.09 848 25.04 22.2 72 14 -6.1 21
22:15 1019 30.09 848 25.04 21.9 71.5 15 -6 21.2
22:20 1019 30.09 848 25.04 21.7 71 15 -5.9 21.3
22:25 1019 30.09 848 25.04 21.3 70.4 15 -5.9 21.4
22:30 1019 30.09 848 25.04 21.2 70.1 15 -6.1 21
22:35 1019 30.09 848 25.04 21.2 70.1 15 -6 21.2
22:40 1019 30.09 848 25.04 21.1 70 16 -5.9 21.4
22:45 1019 30.09 848 25.04 20.9 69.6 16 -5.8 21.5
22:50 1019 30.09 848 25.04 20.8 69.4 16 -5.5 22.2
22:55 1019 30.09 848 25.04 20.4 68.8 17 -5.1 22.8
23:00 1019 30.09 848 25.04 20.1 68.3 18 -5 23.1
23:05 1019 30.09 848 25.04 20 67.9 18 -4.9 23.1
23:10 1019 30.09 848 25.04 19.8 67.6 18 -4.8 23.3
23:15 1019 30.09 848 25.04 19.6 67.2 19 -4.7 23.5
23:20 1019 30.09 848 25.04 19.4 66.8 19 -4.4 24
23:25 1019 30.09 848 25.04 19.1 66.4 20 -4.5 24
23:30 1019 30.09 848 25.04 18.9 66.1 20 -4.5 23.9
23:35 1019 30.09 848 25.04 18.8 65.8 20 -4.5 23.9
23:40 1019 30.09 848 25.04 18.7 65.7 20 -4.4 24.1
23:45 1019 30.09 848 25.04 18.7 65.7 20 -4.5 23.8
23:50 1019 30.09 848 25.04 18.8 65.8 20 -4.6 23.8
23:55 1019 30.09 848 25.04 19 66.1 20 -4.5 23.8
24:00 1019 30.09 848 25.04 19 66.3 20 -4.4 24